This demonstration page uses our WeatherBlox Daily Observations layout. Learn more.

Left ArrowRight Arrow

Hourly Observations for November 20, 2015

Temp ( °F °C ) Dew Point ( °F °C ) Humidity (%) Winds ( mph kmh ) Pressure ( in mb ) Visibility ( mi km ) Precip ( " mm )
12:53 am 00:53 Mostly Cloudy 38 3.3 24 -4.4 57 57 S 7 11 30.13 1020 10 16 0.00 0.00
1:53 am 01:53 Cloudy 38 3.3 25 -3.9 60 60 SSE 10 17 30.10 1019 10 16 0.00 0.00
2:53 am 02:53 Cloudy 37 2.8 25 -3.9 62 62 SE 10 17 30.07 1018 10 16 0.00 0.00
3:53 am 03:53 Mostly Cloudy 37 2.8 24 -4.4 59 59 SE 9 15 30.05 1018 10 16 0.00 0.00
4:53 am 04:53 Partly Cloudy 37 2.8 24 -4.4 59 59 SE 10 17 30.03 1017 10 16 0.00 0.00
5:53 am 05:53 Cloudy 38 3.3 23 -5 55 55 SSE 12 19 30.00 1016 10 16 0.00 0.00
6:53 am 06:53 Cloudy 37 2.8 22 -5.6 54 54 S 10 17 30.01 1016 10 16 0.00 0.00
7:53 am 07:53 Mostly Cloudy 37 2.8 22 -5.6 54 54 SSE 13 20 29.99 1016 10 16 0.00 0.00
8:53 am 08:53 Cloudy 37 2.8 24 -4.4 59 59 SSE 15 24 29.96 1015 10 16 0.00 0.00
9:53 am 09:53 Cloudy 40 4.4 25 -3.9 55 55 SE 12 19 29.93 1014 10 16 0.00 0.00
10:53 am 10:53 Partly Cloudy 42 5.6 26 -3.3 53 53 SSE 13 20 29.88 1012 10 16 0.00 0.00
11:53 am 11:53 Sunny 47 8.3 29 -1.7 50 50 S 16 26 29.83 1010 10 16 0.00 0.00
12:53 pm 12:53 Mostly Sunny 49 9.4 31 -0.6 50 50 SW 12 19 29.83 1010 10 16 0.00 0.00
1:53 pm 13:53 Cloudy 48 8.9 31 -0.6 52 52 WNW 16 26 29.86 1011 10 16 0.00 0.00
2:53 pm 14:53 Mostly Cloudy 46 7.8 30 -1.1 54 54 NNW 17 28 29.87 1012 10 16 0.00 0.00
3:53 pm 15:53 Cloudy 37 2.8 30 -1.1 76 76 N 21 33 29.97 1015 10 16 0.00 0.00
4:35 pm 16:35 Cloudy 34 1.1 28 -2.2 79 79 N 22 35 30.06 1018 10 16 0.00 0.00
4:53 pm 16:53 Cloudy 34 1.1 28 -2.2 79 79 N 23 37 30.04 1017 10 16 0.00 0.00
5:44 pm 17:44 Cloudy 32 0 27 -3 80 80 N 25 41 30.12 1020 10 16 0.00 0.00
5:53 pm 17:53 Cloudy 31 -0.6 26 -3.3 82 82 N 24 39 30.08 1019 10 16 0.00 0.00
6:53 pm 18:53 Cloudy 30 -1.1 24 -4.4 79 79 N 28 44 30.15 1021 10 16 0.00 0.00
7:02 pm 19:02 Cloudy 30 -1.1 24 -4.4 79 79 NNE 29 46 30.21 1023 10 16 0.00 0.00
7:53 pm 19:53 Cloudy 29 -1.7 24 -4.4 82 82 N 29 46 30.19 1022 10 16 0.00 0.00
8:53 pm 20:53 Cloudy 29 -1.7 23 -5 78 78 N 25 41 30.24 1024 10 16 0.00 0.00
9:44 pm 21:44 Cloudy 30 -1 23 -5 75 75 N 24 39 30.33 1027 10 16 0.00 0.00
9:53 pm 21:53 Cloudy 30 -1.1 24 -4.4 79 79 N 22 35 30.29 1026 10 16 0.00 0.00
10:00 pm 22:00 Cloudy 30 -1 25 -4 80 80 N 26 43 30.33 1027 10 16 0.00 0.00
10:53 pm 22:53 Cloudy 30 -1.1 24 -4.4 79 79 N 24 39 30.32 1027 10 16 0.00 0.00
11:53 pm 23:53 Cloudy 29 -1.7 23 -5 78 78 NNE 21 33 30.31 1026 10 16 0.00 0.00

Powered by AerisWeather